QPF
0.00 0.00 0.00 0.00 0.00 0.00 0.00 0.00 0.00 0.00 0.00 0.00 0.00 0.00 0.00 0.00 0.00 0.00 0.00 0.00 0.00 0.00 0.00 0.00 0.00 0.00 0.00 0.00 0.00 0.00 0.00 0.00 0.00 0.00 0.00 0.00 0.00 0.00 0.00 0.00 0.00 0.00
0.00 0.00 0.00 0.00 0.00 0.00 0.00 0.00 0.00 0.00 0.00 0.00 0.00 0.00 0.00 0.00 0.00 0.00 0.00 0.00 0.00 0.00 0.00 0.00 0.00 0.00 0.00 0.00 0.00 0.00 0.00 0.00 0.00 0.00 0.00 0.00 0.00 0.00 0.00 0.00 0.00 0.00
0.00 0.00 0.00 0.00 0.00 0.00 0.00 0.00 0.00 0.00 0.00 0.00 0.00 0.00 0.00 0.00 0.00 0.00 0.00 0.00 0.00 0.00 0.00 0.00 0.00 0.00 0.00 0.00 0.00 0.00 0.00 0.00 0.00 0.00 0.00 0.00 0.00 0.00 0.00 0.00 0.00 0.00
0.00 0.00 0.00 0.00 0.00 0.00 0.00 0.00 0.00 0.00 0.00 0.00 0.00 0.00 0.00 0.00 0.00 0.00 0.00 0.00 0.00 0.00 0.00 0.00 0.00 0.00 0.00 0.00 0.00 0.00 0.00 0.00 0.00 0.00 0.00 0.00 0.00 0.00 0.00 0.00 0.00 0.00
0.00 0.00 0.00 0.00 0.00 0.00 0.00 0.00 0.00 0.00 0.00 0.00 0.00 0.00 0.00 0.00 0.00 0.00 0.00 0.00 0.00 0.00 0.00 0.00 0.00 0.00 0.00 0.00 0.00 0.00 0.00 0.00 0.00 0.00 0.00 0.00 0.00 0.00 0.00 0.00 0.00 0.00
0.00 0.00 0.00 0.00 0.00 0.00 0.00 0.00 0.00 0.00 0.00 0.00 0.00 0.00 0.00 0.00 0.00 0.00 0.00 0.00 0.00 0.00 0.00 0.00 0.00 0.00 0.00 0.00 0.00 0.00 0.00 0.00 0.00 0.00 0.00 0.00 0.00 0.00 0.00 0.00 0.00 0.00
0.00 0.00 0.00 0.00 0.00 0.00 0.00 0.00 0.00 0.00 0.00 0.00 0.00 0.00 0.00 0.00 0.00 0.00 0.00 0.00 0.00 0.00 0.00 0.00 0.00 0.00 0.00 0.00 0.00 0.00 0.00 0.00 0.00 0.00 0.00 0.00 0.00 0.00 0.00 0.00 0.00 0.00
0.00 0.00 0.00 0.00 0.00 0.00 0.00 0.00 0.00 0.00 0.00 0.00 0.00 0.00 0.00 0.00 0.00 0.00 0.00 0.00 0.00 0.00 0.00 0.00 0.00 0.00 0.00 0.00 0.00 0.00 0.00 0.00 0.00 0.00 0.00 0.00 0.00 0.00 0.00 0.00 0.00 0.00
0.00 0.00 0.00 0.00 0.00 0.00 0.00 0.00 0.00 0.00 0.00 0.00 0.00 0.00 0.00 0.00 0.00 0.00 0.00 0.00 0.00 0.00 0.00 0.00 0.00 0.00 0.00 0.00 0.00 0.00 0.00 0.00 0.00 0.00 0.00 0.00 0.00 0.00 0.00 0.00 0.00 0.00
0.00 0.00 0.00 0.00 0.00 0.00 0.00 0.00 0.00 0.00 0.00 0.00 0.00 0.00 0.00 0.00 0.00 0.00 0.00 0.00 0.00 0.00 0.00 0.00 0.00 0.00 0.00 0.00 0.00 0.00 0.00 0.00 0.00 0.00 0.00 0.00 0.00 0.00 0.00 0.00 0.00 0.00
0.00 0.00 0.00 0.00 0.00 0.00 0.00 0.00 0.00 0.00 0.00 0.00 0.00 0.01 0.03 0.05 0.03 0.00 0.00 0.00 0.00 0.00 0.00 0.00 0.00 0.00 0.00 0.00 0.00 0.00 0.00 0.00 0.00 0.00 0.00 0.00 0.00 0.00 0.00 0.00 0.00 0.00
0.00 0.00 0.00 0.00 0.00 0.00 0.00 0.00 0.00 0.00 0.01 0.15 0.32 0.11 0.06 0.14 0.27 0.14 0.02 0.07 0.01 0.00 0.00 0.00 0.00 0.00 0.00 0.00 0.00 0.00 0.00 0.00 0.00 0.00 0.00 0.00 0.00 0.00 0.00 0.00 0.00 0.00
0.00 0.00 0.00 0.00 0.00 0.00 0.00 0.00 0.00 0.02 0.16 0.19 0.21 0.07 0.09 0.21 0.24 0.19 0.17 0.07 0.01 0.01 0.02 0.01 0.00 0.00 0.00 0.00 0.00 0.00 0.00 0.00 0.00 0.00 0.00 0.00 0.00 0.00 0.00 0.00 0.01 0.03
0.00 0.00 0.00 0.00 0.00 0.00 0.00 0.00 0.00 0.02 0.06 0.04 0.01 0.01 0.00 0.00 0.15 0.10 0.03 0.02 0.17 0.02 0.00 0.01 0.00 0.23 0.01 0.00 0.00 0.00 0.00 0.00 0.00 0.00 0.00 0.00 0.00 0.00 0.00 0.06 0.16 0.12
0.00 0.00 0.00 0.00 0.00 0.00 0.00 0.00 0.00 0.00 0.00 0.00 0.08 0.15 0.00 0.00 0.00 0.00 0.00 0.02 0.02 0.03 0.00 0.04 0.23 0.14 0.11 0.00 0.00 0.01 0.00 0.00 0.00 0.00 0.00 0.00 0.00 0.01 0.09 0.10 0.13 0.27
0.00 0.00 0.00 0.00 0.00 0.00 0.00 0.00 0.00 0.00 0.00 0.00 0.00 0.00 0.00 0.00 0.00 0.00 0.01 0.00 0.00 0.03 0.04 0.06 0.04 0.00 0.00 0.00 0.00 0.00 0.00 0.00 0.00 0.00 0.00 0.00 0.01 0.00 0.04 0.06 0.16 0.17
0.00 0.00 0.00 0.00 0.00 0.00 0.00 0.00 0.00 0.00 0.00 0.00 0.00 0.00 0.00 0.00 0.00 0.00 0.00 0.00 0.00 0.00 0.00 0.00 0.00 0.00 0.00 0.00 0.00 0.00 0.00 0.00 0.00 0.00 0.00 0.00 0.00 0.00 0.00 0.00 0.01 0.00
0.00 0.00 0.00 0.00 0.00 0.00 0.00 0.00 0.00 0.00 0.00 0.00 0.00 0.00 0.00 0.00 0.00 0.00 0.00 0.00 0.00 0.00 0.00 0.00 0.00 0.00 0.00 0.00 0.00 0.00 0.00 0.00 0.00 0.00 0.00 0.00 0.00 0.00 0.00 0.00 0.00 0.00
0.00 0.00 0.00 0.00 0.00 0.00 0.00 0.00 0.00 0.00 0.00 0.00 0.00 0.00 0.00 0.00 0.00 0.00 0.00 0.00 0.00 0.00 0.00 0.00 0.00 0.00 0.00 0.00 0.00 0.00 0.00 0.00 0.00 0.00 0.00 0.00 0.00 0.00 0.00 0.00 0.00 0.00
0.12 0.04 0.06 0.00 0.00 0.00 0.00 0.00 0.00 0.00 0.00 0.00 0.00 0.00 0.00 0.00 0.00 0.00 0.00 0.00 0.00 0.00 0.00 0.00 0.00 0.00 0.00 0.00 0.00 0.00 0.00 0.00 0.00 0.00 0.00 0.00 0.00 0.00 0.00 0.00 0.00 0.00
0.27 0.17 0.14 0.08 0.02 0.00 0.00 0.00 0.00 0.00 0.00 0.00 0.00 0.00 0.00 0.00 0.00 0.00 0.00 0.00 0.00 0.00 0.00 0.00 0.00 0.00 0.00 0.00 0.00 0.00 0.00 0.00 0.00 0.00 0.00 0.00 0.00 0.00 0.00 0.00 0.00 0.00
0.08 0.06 0.02 0.00 0.00 0.00 0.00 0.00 0.00 0.00 0.00 0.00 0.00 0.00 0.00 0.00 0.00 0.00 0.00 0.00 0.00 0.00 0.00 0.00 0.00 0.00 0.00 0.00 0.00 0.00 0.00 0.00 0.00 0.00 0.00 0.00 0.00 0.00 0.00 0.00 0.00 0.00
0.14 0.07 0.07 0.11 0.06 0.00 0.00 0.00 0.00 0.00 0.00 0.00 0.00 0.00 0.00 0.00 0.00 0.00 0.00 0.00 0.00 0.00 0.00 0.00 0.00 0.00 0.00 0.00 0.00 0.00 0.00 0.00 0.00 0.00 0.00 0.00 0.00 0.00 0.00 0.00 0.00 0.00
0.10 0.36 0.41 0.30 0.02 0.01 0.00 0.00 0.00 0.00 0.00 0.00 0.00 0.00 0.00 0.00 0.00 0.00 0.00 0.00 0.00 0.00 0.00 0.00 0.00 0.00 0.00 0.00 0.00 0.00 0.00 0.00 0.00 0.00 0.00 0.00 0.00 0.00 0.00 0.00 0.00 0.00
0.27 0.49 0.60 0.31 0.15 0.06 0.02 0.01 0.00 0.00 0.00 0.00 0.00 0.00 0.00 0.00 0.00 0.00 0.00 0.00 0.00 0.00 0.00 0.00 0.00 0.00 0.00 0.00 0.00 0.00 0.00 0.00 0.00 0.00 0.04 0.03 0.00 0.00 0.00 0.00 0.00 0.00
0.42 0.45 0.54 0.65 0.60 0.32 0.21 0.11 0.07 0.03 0.01 0.01 0.01 0.01 0.01 0.01 0.00 0.00 0.00 0.06 0.00 0.00 0.00 0.00 0.00 0.00 0.00 0.00 0.00 0.00 0.00 0.00 0.00 0.00 0.01 0.01 0.02 0.02 0.01 0.00 0.00 0.00
MSLP
1019.46 1019.58 1019.86 1020.02 1020.18 1020.22 1020.42 1020.62 1020.66 1020.78 1020.82 1020.86 1021.06 1021.06 1021.06 1020.86 1020.70 1020.78 1020.78 1020.78 1020.78 1020.82 1020.82 1020.78 1020.74 1020.86 1020.86 1020.82 1020.82 1020.86 1020.98 1021.10 1021.02 1020.94 1020.98 1020.98 1021.10 1021.14 1021.18 1021.14 1021.14 1021.10
1019.38 1019.42 1019.58 1019.74 1019.98 1020.02 1020.14 1020.18 1020.38 1020.54 1020.66 1020.62 1020.62 1020.62 1020.62 1020.62 1020.58 1020.62 1020.70 1020.78 1020.70 1020.70 1020.66 1020.74 1020.70 1020.74 1020.82 1020.90 1020.90 1021.02 1021.10 1021.18 1021.26 1020.90 1021.06 1021.06 1021.10 1021.06 1021.14 1021.06 1021.02 1020.86
1019.26 1019.38 1019.54 1019.78 1019.94 1020.02 1020.02 1020.02 1020.14 1020.30 1020.42 1020.38 1020.34 1020.38 1020.46 1020.34 1020.46 1020.46 1020.50 1020.58 1020.70 1020.62 1020.66 1020.66 1020.70 1020.70 1020.78 1020.82 1020.90 1020.98 1021.10 1021.22 1021.30 1021.02 1021.06 1021.14 1021.02 1021.10 1021.06 1020.98 1020.98 1020.98
1019.10 1019.18 1019.34 1019.46 1019.54 1019.74 1019.74 1019.98 1020.10 1020.18 1020.22 1020.38 1020.38 1020.22 1020.18 1020.18 1020.26 1020.38 1020.46 1020.42 1020.58 1020.58 1020.58 1020.62 1020.66 1020.66 1020.74 1020.78 1020.90 1021.02 1020.98 1021.06 1020.98 1020.94 1021.10 1021.02 1020.98 1020.98 1021.02 1020.94 1021.02 1021.10
1018.98 1019.10 1019.14 1019.22 1019.34 1019.42 1019.62 1019.90 1020.02 1020.10 1020.18 1020.10 1020.06 1020.06 1020.14 1020.18 1020.30 1020.34 1020.42 1020.50 1020.50 1020.54 1020.58 1020.62 1020.58 1020.62 1020.66 1020.78 1020.86 1021.06 1021.02 1021.06 1020.98 1020.98 1021.14 1021.22 1020.94 1020.90 1020.90 1020.94 1021.10 1021.06
1018.82 1018.82 1018.94 1019.10 1019.22 1019.38 1019.66 1019.78 1019.78 1019.90 1019.94 1020.02 1019.98 1019.86 1019.90 1019.98 1020.14 1020.22 1020.30 1020.50 1020.46 1020.46 1020.54 1020.54 1020.58 1020.54 1020.50 1020.66 1020.78 1020.90 1020.94 1021.06 1021.02 1021.10 1021.26 1021.30 1021.10 1020.82 1020.82 1020.90 1021.10 1021.22
1018.86 1018.86 1018.94 1018.94 1019.10 1019.14 1019.38 1019.46 1019.46 1019.50 1019.62 1019.58 1019.62 1019.82 1019.70 1019.94 1020.02 1020.06 1020.10 1020.22 1020.34 1020.38 1020.46 1020.54 1020.58 1020.58 1020.46 1020.54 1020.70 1020.82 1020.82 1020.86 1020.94 1021.06 1021.30 1021.26 1021.14 1021.06 1020.82 1020.86 1020.94 1021.06
1018.66 1018.66 1018.74 1018.86 1019.02 1019.10 1019.26 1019.26 1019.26 1019.30 1019.26 1019.34 1019.62 1019.54 1019.46 1019.70 1019.78 1019.86 1019.90 1019.98 1020.18 1020.26 1020.30 1020.38 1020.38 1020.42 1020.42 1020.46 1020.70 1020.82 1020.82 1020.74 1020.86 1020.90 1021.14 1021.18 1021.10 1021.22 1021.02 1020.86 1020.86 1021.02
1018.46 1018.62 1018.66 1018.82 1018.98 1019.02 1019.10 1019.10 1019.06 1019.02 1018.98 1019.22 1019.30 1019.34 1019.22 1019.30 1019.46 1019.58 1019.70 1019.82 1020.02 1020.10 1020.18 1020.26 1020.30 1020.30 1020.26 1020.42 1020.58 1020.70 1020.78 1020.74 1020.66 1020.78 1020.94 1021.10 1021.14 1021.10 1021.02 1020.86 1020.98 1021.02
1018.46 1018.42 1018.58 1018.74 1018.90 1018.86 1018.90 1018.82 1018.78 1018.82 1018.74 1018.90 1018.98 1018.98 1019.18 1019.10 1019.14 1019.30 1019.50 1019.78 1019.94 1020.02 1020.06 1020.14 1020.22 1020.18 1020.22 1020.30 1020.42 1020.50 1020.58 1020.62 1020.58 1020.66 1020.70 1020.78 1020.86 1020.82 1020.82 1020.82 1020.94 1021.06
1018.38 1018.38 1018.54 1018.62 1018.70 1018.66 1018.70 1018.58 1018.54 1018.54 1018.58 1018.66 1018.94 1019.38 1019.54 1019.50 1019.34 1019.18 1019.54 1019.74 1019.90 1019.98 1020.02 1020.06 1020.02 1020.02 1020.14 1020.22 1020.22 1020.18 1020.30 1020.38 1020.42 1020.46 1020.50 1020.50 1020.50 1020.50 1020.46 1020.54 1020.62 1020.74
1018.22 1018.26 1018.42 1018.46 1018.46 1018.46 1018.38 1018.34 1018.30 1018.38 1018.62 1019.42 1020.02 1020.10 1020.06 1020.18 1020.58 1020.62 1020.02 1019.82 1019.78 1019.78 1019.78 1019.78 1019.74 1019.78 1019.90 1020.02 1020.06 1020.06 1020.14 1020.18 1020.22 1020.30 1020.34 1020.34 1020.30 1020.26 1020.18 1020.18 1020.34 1020.38
1018.10 1018.10 1018.06 1018.14 1018.14 1018.10 1018.02 1018.02 1018.10 1018.50 1019.30 1019.06 1019.10 1019.34 1019.78 1020.02 1019.98 1020.18 1020.54 1020.38 1019.86 1019.70 1019.74 1019.78 1019.78 1019.66 1019.74 1019.82 1019.90 1019.94 1020.02 1020.18 1020.22 1020.26 1020.26 1020.26 1020.14 1020.06 1019.98 1019.90 1020.22 1020.58
1017.74 1017.70 1017.70 1017.74 1017.70 1017.74 1017.82 1017.82 1017.82 1018.54 1018.90 1018.78 1019.06 1019.30 1019.46 1019.54 1019.62 1019.70 1019.62 1019.74 1019.54 1019.58 1019.58 1019.46 1020.02 1020.70 1020.18 1019.78 1019.74 1019.78 1019.90 1019.98 1020.06 1020.10 1020.14 1020.10 1020.02 1019.90 1019.90 1020.58 1021.34 1021.26
1017.62 1017.62 1017.58 1017.66 1017.78 1017.82 1017.86 1017.86 1017.86 1018.30 1018.54 1018.62 1018.70 1018.82 1019.02 1019.10 1019.14 1019.26 1019.58 1019.74 1019.62 1019.50 1019.74 1019.78 1019.90 1020.10 1019.98 1019.98 1019.94 1019.86 1019.82 1019.90 1019.94 1019.98 1020.02 1020.10 1020.06 1020.02 1020.66 1021.14 1020.78 1020.10
1017.46 1017.62 1017.70 1017.78 1017.78 1017.90 1017.94 1017.90 1017.98 1018.10 1018.26 1018.38 1018.50 1018.58 1018.70 1018.82 1018.98 1019.14 1019.46 1019.66 1019.86 1019.86 1019.86 1019.86 1020.02 1020.14 1020.02 1020.02 1019.86 1019.78 1019.78 1019.82 1019.82 1019.86 1019.90 1019.98 1020.02 1019.94 1020.18 1020.14 1020.26 1020.38
1017.42 1017.62 1017.78 1017.94 1017.94 1018.02 1018.10 1018.10 1018.14 1018.18 1018.30 1018.38 1018.50 1018.58 1018.58 1018.54 1018.70 1019.02 1019.22 1019.42 1019.58 1019.82 1020.10 1020.14 1020.30 1020.38 1020.18 1020.02 1019.90 1019.82 1019.70 1019.78 1019.86 1019.90 1019.78 1019.82 1019.90 1020.14 1020.26 1020.06 1019.98 1019.82
1017.42 1017.58 1017.86 1018.10 1018.18 1018.18 1018.26 1018.30 1018.26 1018.34 1018.46 1018.54 1018.58 1018.66 1018.62 1018.54 1018.70 1018.82 1018.94 1019.10 1019.38 1019.78 1020.14 1020.34 1020.46 1020.54 1020.38 1020.22 1019.98 1019.82 1019.66 1019.62 1019.66 1019.78 1019.82 1019.86 1019.90 1019.94 1020.02 1020.02 1020.02 1019.94
1018.46 1018.26 1018.06 1018.30 1018.30 1018.26 1018.34 1018.54 1018.66 1018.70 1018.74 1018.78 1018.86 1018.78 1018.78 1018.94 1019.02 1019.02 1019.26 1019.38 1019.58 1019.90 1020.22 1020.38 1020.46 1020.54 1020.42 1020.22 1020.10 1019.98 1019.90 1019.62 1019.58 1019.50 1019.62 1019.74 1019.86 1019.98 1019.98 1019.94 1019.98 1020.06
1017.90 1018.82 1019.34 1018.58 1018.42 1018.42 1018.46 1018.66 1018.82 1018.90 1018.86 1018.82 1018.86 1018.94 1019.02 1019.18 1019.22 1019.38 1019.50 1019.70 1019.90 1020.10 1020.38 1020.54 1020.58 1020.54 1020.34 1020.14 1020.02 1019.94 1019.78 1019.70 1019.50 1019.46 1019.50 1019.66 1019.82 1019.90 1019.94 1020.02 1020.06 1020.22
1017.66 1017.98 1019.26 1019.62 1018.82 1018.74 1018.78 1018.86 1018.98 1019.06 1019.06 1019.02 1019.06 1019.18 1019.30 1019.34 1019.46 1019.62 1019.74 1019.86 1020.06 1020.22 1020.38 1020.50 1020.58 1020.58 1020.38 1020.18 1019.98 1019.78 1019.62 1019.50 1019.50 1019.50 1019.70 1019.90 1019.98 1020.02 1020.02 1020.06 1020.18 1020.30
1017.90 1018.10 1018.50 1018.94 1018.90 1018.90 1019.06 1019.22 1019.26 1019.26 1019.26 1019.18 1019.22 1019.38 1019.42 1019.46 1019.58 1019.66 1019.98 1020.18 1020.26 1020.30 1020.34 1020.50 1020.54 1020.54 1020.38 1020.22 1019.98 1019.74 1019.54 1019.42 1019.46 1019.62 1019.98 1020.14 1020.22 1020.22 1020.18 1020.14 1020.18 1020.30
1018.02 1018.50 1019.06 1019.42 1019.14 1018.94 1019.10 1019.22 1019.34 1019.42 1019.38 1019.22 1019.46 1019.58 1019.74 1019.90 1020.02 1020.18 1020.34 1020.50 1020.58 1020.58 1020.54 1020.62 1020.54 1020.46 1020.34 1020.22 1020.02 1019.90 1019.58 1019.50 1019.58 1019.78 1020.02 1020.22 1020.30 1020.22 1020.18 1020.18 1020.26 1020.30
1018.02 1018.34 1019.02 1019.46 1019.46 1019.34 1019.30 1019.26 1019.26 1019.30 1019.38 1019.34 1019.54 1019.74 1019.94 1020.06 1020.14 1020.34 1020.46 1020.54 1020.66 1020.82 1020.78 1020.82 1020.82 1020.70 1020.50 1020.22 1020.02 1019.86 1019.70 1019.66 1019.70 1019.90 1020.14 1020.22 1020.34 1020.26 1020.22 1020.26 1020.22 1020.34
1018.02 1018.34 1018.86 1019.26 1019.42 1019.34 1019.42 1019.54 1019.50 1019.42 1019.42 1019.42 1019.58 1019.74 1020.02 1020.10 1020.26 1020.54 1020.70 1020.74 1020.70 1020.74 1020.74 1020.90 1020.94 1020.86 1020.66 1020.38 1020.18 1020.02 1019.86 1019.82 1019.78 1019.98 1020.26 1020.38 1020.42 1020.54 1020.46 1020.54 1020.58 1020.54
1018.38 1018.58 1018.78 1019.10 1019.38 1019.54 1019.50 1019.46 1019.42 1019.50 1019.66 1019.70 1019.90 1019.98 1020.22 1020.38 1020.54 1020.70 1020.94 1021.06 1021.02 1021.02 1021.02 1021.06 1021.10 1021.06 1020.98 1020.74 1020.50 1020.30 1020.18 1020.10 1020.10 1020.18 1020.42 1020.46 1020.46 1020.50 1020.78 1020.78 1020.70 1020.74
Thickness
5781 5781 5781 5780 5780 5780 5779 5779 5779 5778 5778 5778 5778 5778 5779 5780 5781 5781 5781 5781 5781 5781 5781 5781 5782 5781 5781 5781 5781 5781 5780 5779 5779 5780 5780 5780 5779 5779 5779 5780 5780 5781
5781 5782 5781 5781 5781 5781 5781 5781 5781 5780 5780 5780 5781 5781 5782 5782 5783 5783 5782 5782 5783 5783 5782 5782 5782 5782 5781 5781 5781 5781 5780 5779 5779 5780 5780 5780 5780 5780 5779 5780 5781 5781
5781 5782 5782 5781 5781 5781 5782 5783 5782 5782 5782 5782 5783 5783 5783 5784 5784 5783 5783 5783 5783 5783 5783 5783 5782 5782 5782 5782 5782 5781 5780 5778 5779 5780 5780 5780 5780 5780 5780 5780 5780 5781
5782 5782 5782 5782 5783 5783 5783 5782 5781 5782 5782 5782 5783 5783 5784 5784 5784 5784 5784 5783 5783 5783 5783 5783 5783 5783 5782 5782 5782 5781 5780 5780 5779 5780 5779 5780 5781 5780 5780 5781 5781 5781
5782 5783 5783 5783 5783 5783 5783 5782 5781 5781 5782 5782 5783 5784 5784 5784 5784 5784 5784 5783 5783 5783 5783 5783 5783 5783 5783 5783 5782 5781 5781 5780 5781 5780 5778 5779 5781 5781 5781 5781 5780 5780
5782 5783 5783 5783 5783 5783 5782 5782 5782 5782 5782 5783 5784 5784 5784 5784 5784 5783 5783 5783 5783 5782 5783 5783 5783 5784 5784 5784 5783 5782 5782 5781 5782 5781 5778 5778 5780 5781 5782 5781 5780 5780
5781 5782 5783 5782 5783 5783 5782 5782 5783 5783 5784 5784 5784 5784 5784 5784 5783 5784 5784 5783 5783 5782 5782 5782 5783 5784 5784 5784 5783 5782 5783 5783 5782 5781 5780 5779 5780 5781 5782 5782 5781 5780
5781 5782 5783 5782 5782 5782 5782 5783 5783 5784 5785 5785 5785 5785 5786 5785 5784 5785 5784 5784 5783 5783 5783 5783 5783 5784 5785 5785 5783 5783 5783 5783 5783 5782 5781 5780 5780 5780 5781 5782 5782 5781
5782 5782 5782 5781 5781 5782 5782 5783 5784 5786 5786 5785 5786 5786 5787 5787 5786 5786 5785 5785 5784 5783 5784 5784 5783 5784 5785 5784 5784 5783 5783 5783 5784 5783 5782 5781 5781 5780 5781 5782 5781 5781
5781 5781 5781 5781 5781 5781 5783 5784 5785 5786 5787 5788 5788 5788 5788 5788 5788 5787 5786 5784 5783 5783 5783 5783 5784 5785 5785 5784 5785 5784 5784 5784 5784 5784 5784 5783 5782 5782 5783 5783 5782 5781
5781 5781 5781 5780 5781 5782 5783 5785 5786 5787 5788 5787 5785 5783 5783 5784 5784 5784 5785 5783 5783 5783 5783 5784 5785 5785 5785 5784 5785 5785 5785 5785 5785 5785 5785 5785 5785 5785 5785 5785 5784 5783
5780 5780 5780 5780 5781 5783 5784 5786 5788 5788 5787 5784 5781 5779 5778 5779 5779 5779 5780 5781 5782 5784 5784 5784 5786 5786 5786 5785 5785 5785 5784 5784 5785 5785 5785 5785 5786 5786 5787 5788 5786 5785
5780 5780 5782 5782 5783 5785 5786 5788 5789 5786 5783 5784 5783 5781 5779 5779 5779 5779 5779 5779 5781 5783 5784 5785 5785 5785 5785 5785 5784 5785 5784 5783 5784 5784 5784 5785 5786 5787 5788 5787 5784 5781
5781 5781 5783 5783 5784 5785 5785 5787 5788 5784 5782 5784 5784 5782 5781 5781 5781 5782 5781 5781 5782 5783 5784 5785 5782 5779 5781 5784 5784 5784 5783 5782 5783 5783 5783 5784 5784 5787 5786 5782 5780 5780
5780 5781 5782 5781 5782 5783 5783 5784 5785 5784 5783 5784 5784 5783 5783 5783 5784 5783 5782 5781 5781 5781 5781 5782 5780 5778 5780 5781 5781 5782 5782 5781 5781 5781 5782 5782 5783 5784 5781 5778 5780 5783
5779 5778 5779 5780 5780 5780 5780 5781 5782 5782 5782 5782 5782 5782 5782 5783 5783 5783 5780 5778 5779 5778 5778 5778 5777 5777 5779 5779 5779 5780 5780 5779 5779 5780 5780 5780 5781 5781 5779 5778 5780 5781
5777 5777 5776 5777 5778 5777 5777 5777 5778 5779 5779 5779 5779 5780 5781 5782 5782 5780 5779 5778 5778 5776 5775 5775 5774 5774 5776 5777 5778 5778 5778 5778 5777 5777 5779 5779 5779 5778 5777 5779 5780 5779
5772 5773 5773 5773 5773 5773 5773 5773 5774 5775 5775 5776 5776 5776 5777 5779 5779 5779 5778 5778 5777 5775 5773 5771 5771 5772 5773 5773 5775 5775 5775 5777 5777 5776 5777 5777 5777 5776 5776 5777 5778 5777
5766 5766 5767 5768 5769 5769 5769 5769 5769 5770 5771 5771 5772 5773 5773 5774 5774 5774 5774 5773 5773 5772 5769 5769 5768 5769 5770 5771 5771 5772 5773 5774 5775 5776 5776 5776 5774 5774 5773 5774 5774 5773
5764 5761 5758 5761 5765 5765 5765 5765 5765 5766 5767 5768 5768 5768 5768 5769 5769 5770 5769 5769 5769 5767 5765 5765 5765 5765 5766 5767 5768 5769 5770 5772 5773 5774 5774 5774 5772 5771 5770 5770 5770 5769
5764 5761 5755 5754 5759 5759 5759 5759 5760 5761 5762 5763 5764 5763 5763 5764 5764 5764 5764 5764 5763 5763 5762 5761 5761 5761 5762 5764 5765 5767 5769 5770 5771 5771 5771 5769 5768 5768 5767 5767 5766 5765
5759 5758 5753 5751 5754 5755 5753 5753 5753 5754 5755 5757 5758 5757 5757 5759 5759 5758 5757 5757 5757 5759 5758 5757 5757 5757 5759 5760 5762 5764 5766 5768 5768 5768 5766 5765 5764 5764 5764 5764 5763 5762
5753 5752 5747 5746 5749 5750 5749 5749 5749 5749 5750 5752 5752 5751 5752 5752 5752 5752 5751 5751 5751 5752 5753 5754 5754 5754 5755 5757 5758 5760 5762 5764 5764 5763 5762 5761 5761 5761 5761 5761 5760 5759
5751 5748 5743 5740 5742 5743 5743 5744 5745 5745 5745 5747 5747 5745 5745 5746 5746 5746 5745 5745 5746 5747 5749 5749 5750 5751 5752 5754 5755 5756 5758 5759 5760 5759 5757 5757 5757 5757 5758 5757 5756 5755
5748 5745 5741 5738 5736 5737 5738 5739 5740 5741 5741 5742 5742 5741 5740 5740 5740 5740 5739 5740 5741 5742 5743 5743 5744 5745 5747 5748 5750 5751 5753 5754 5755 5755 5754 5753 5752 5752 5752 5752 5751 5751
5742 5739 5738 5736 5734 5733 5733 5734 5735 5737 5737 5737 5737 5736 5735 5734 5734 5733 5733 5732 5733 5735 5736 5736 5737 5738 5740 5742 5744 5745 5747 5748 5750 5749 5749 5748 5748 5747 5746 5745 5745 5745